Location: Observatoire de La Sitelle
(46.0500°N, 74.2167°W)
Time: 06:03:03
(UTC-04:00)

Tiangong 2 - Visible Passes

Search period start: 20 May 2018 00:00
Search period end: 30 May 2018 00:00
Orbit: 382 x 386 km, 42.8° (Epoch: 20 May)

Date Brightness Start Highest point End Pass type
(mag) Time Alt. Az. Time Alt. Az. Time Alt. Az.
21 May 2.8 21:32:13 10° S 21:34:06 15° SSE 21:34:27 15° SE visible
22 May 1.9 22:07:51 10° SW 22:10:39 29° SSE 22:10:49 29° SSE visible
23 May 2.4 21:08:32 10° SSW 21:11:01 22° SSE 21:13:31 10° ESE visible
23 May 1.9 22:44:20 10° WSW 22:46:39 36° SSW 22:46:39 36° SSW visible
24 May 1.6 21:44:42 10° WSW 21:47:39 37° S 21:49:53 15° ESE visible
24 May 3.2 23:21:06 10° W 23:22:06 18° WSW 23:22:06 18° WSW visible
25 May 1.3 22:21:20 10° WSW 22:24:23 46° S 22:25:08 37° SE visible
26 May 1.5 21:21:38 10° WSW 21:24:38 44° S 21:27:40 10° ESE visible
26 May 2.3 22:58:10 10° W 23:00:13 29° SW 23:00:13 29° SW visible
27 May 1.5 21:58:21 10° W 22:01:22 43° S 22:03:01 22° SE visible
28 May 2.2 22:35:16 10° WSW 22:37:58 28° SSW 22:37:58 28° SSW visible
29 May 1.9 21:35:22 10° W 21:38:18 36° SSW 21:40:42 14° SE visible
29 May 3.8 23:12:50 10° WSW 23:12:52 10° WSW 23:12:52 10° WSW visible
